Location: Hepcat Sky Observatory
(29.9800°N, 95.6500°W)
Time: 22:31:53
(UTC-06:00)

Daily predictions for brighter satellites

Satellite Brightness Start Highest point End
(mag) Time Altitude Azimuth Time Altitude Azimuth Time Altitude Azimuth
Cosmos 1484 Rocket 3.3 18:34:57 10° S 18:38:55 68° W 18:42:52 10° NNW
GOES 2 Rocket 3.5 18:33:58 10° W 18:39:10 64° S 18:43:29 10° ESE
COSMO-SKYMED 1 3.3 18:37:03 10° N 18:41:19 57° WNW 18:45:33 10° SSW
ASTRO E2 2.7 18:38:34 10° W 18:42:37 80° N 18:46:39 10° E
Gbstr 26 Del rocket 3.7 18:40:11 10° SSW 18:43:44 30° SE 18:47:02 10° ENE
SL-16 R/B 2.8 18:43:21 10° N 18:48:31 35° ENE 18:53:39 10° SE
Meteor 1-20 Rocket 4.3 18:45:58 10° S 18:51:44 80° E 18:57:35 10° N
Cosmos 2360 4.3 18:47:57 10° NNW 18:53:42 84° WSW 18:59:25 10° SSE
Cosmos 1818 3.6 18:50:37 10° SSW 18:56:02 86° ESE 19:01:31 10° NNE
Cosmos 2151 Rocket 3.6 18:52:12 10° S 18:56:37 66° E 19:01:05 10° NNE
Cosmos 1745 Rocket 4.5 18:50:29 10° SSW 18:56:46 68° W 19:03:04 10° N
Cosmos 1536 4.4 18:57:11 10° SE 18:59:34 15° E 19:01:13 12° ENE
Cosmos 1340 4.0 18:58:20 10° NNE 19:01:05 19° ENE 19:03:50 10° SE
Cosmos 2292 Rocket 3.9 18:57:10 10° S 19:01:23 59° E 19:07:04 10° NNE
Cosmos 1461 4.1 18:59:49 10° N 19:02:57 21° ENE 19:04:50 16° E
Okean 1 Rocket 4.0 19:02:27 10° SSE 19:06:13 27° E 19:09:58 10° NNE
FREGAT/IRIS 2.7 19:03:48 10° SSE 19:06:48 53° ENE 19:09:49 10° N
Cosmos 2322 Rocket 2.3 19:01:44 10° N 19:07:14 54° ENE 19:12:42 10° SE
Okean 1 3.4 19:07:43 10° N 19:11:43 55° E 19:15:41 10° SSE
SL-8 R/B 3.7 19:08:59 10° NW 19:13:48 71° NE 19:17:49 15° ESE
ATLAS 2A CENTAUR R/B 1.8 19:12:00 10° WSW 19:14:18 48° S 19:18:32 17° ESE
Cosmos 407 Rocket 4.2 19:10:29 10° SSW 19:15:34 56° WNW 19:20:46 10° N
Cosmos 676 Rocket 4.0 19:11:18 10° SSW 19:16:28 85° WNW 19:21:41 10° NNE
ALOS 2.4 19:13:00 10° SSE 19:17:28 48° ENE 19:21:57 10° N
ERBS 3.1 19:14:51 10° NW 19:18:14 52° SW 19:21:35 10° SSE
FENGYUN 3A 3.7 19:16:43 10° SSE 19:21:57 54° ENE 19:27:13 10° N
H-2A R/B 3.4 19:21:59 28° E 19:22:33 29° ENE 19:25:48 10° NNE
Meteor 2-4 Rocket 4.4 19:25:33 10° NNE 19:30:17 29° ENE 19:31:01 28° E
Meteor 1-11 Rocket 3.7 19:27:54 10° S 19:33:35 73° E 19:39:24 10° NNE
Cosmos 1812 4.4 19:33:16 10° NNW 19:36:48 35° W 19:40:18 10° SSW
PSLV R/B 4.3 19:33:56 10° WNW 19:36:53 37° SW 19:38:04 26° SSE
Cosmos 1238 Rocket 4.5 19:34:43 10° N 19:35:11 14° N 19:35:11 14° N
Helios 1B rocket 2.5 19:38:47 32° NE 19:40:22 49° E 19:44:23 10° S
Cosmos 1140 Rocket 3.5 19:38:19 10° SSW 19:43:26 79° WNW 19:48:35 10° NNE
Cosmos 1536 Rocket 4.1 19:43:53 10° NNW 19:48:17 60° W 19:52:40 10° S
Cosmos 2219 3.3 19:43:12 10° S 19:48:46 55° ESE 19:51:30 29° NE
Spot 2 Rocket 3.3 19:44:50 10° SSE 19:49:52 81° ENE 19:54:56 10° N
Resurs 01 Rocket 1.5 19:45:46 10° SSE 19:50:11 89° ENE 19:54:36 10° NNW
GPS 2-04 Rocket1 2.8 19:48:16 10° WSW 19:52:33 65° SSE 19:52:48 64° SE
Tiangong 2 3.6 19:53:55 10° NNW 19:54:42 14° NNW 19:54:42 14° NNW
Cosmos 1850 Rocket 3.9 19:52:46 10° SSW 19:58:02 86° ESE 20:02:31 15° NNE
Cosmos 614 Rocket 4.0 19:52:58 10° SSW 19:58:03 77° WNW 20:03:08 10° NNE
Cosmos 2360 Rocket 2.2 19:54:33 10° N 20:00:07 57° ENE 20:00:38 55° E
DNEPR-1 R/B 3.9 19:59:06 10° NW 20:03:13 60° WSW 20:04:45 36° S
SL-08 ROCKET BODY 4.3 19:57:20 10° S 20:03:28 86° E 20:09:41 10° N
Cosmos 2327 Rocket 4.3 19:57:38 10° S 20:03:44 71° E 20:09:59 10° N
Cosmos 2181 Rocket 4.3 20:02:33 10° NNW 20:08:45 67° W 20:15:02 10° S
BREEZE-M DEB (TANK) 4.4 20:08:14 10° NNW 20:09:29 21° N 20:09:29 21° N
Longmarch 3A Rocket 4.1 20:11:51 10° WSW 20:12:05 13° WSW 20:12:05 13° WSW
Resurs 1-3 4.2 20:11:39 14° S 20:15:14 54° W 20:19:32 10° NNW
H-2A ROCKET BODY 4.3 20:09:56 10° W 20:19:02 20° SW 20:22:45 10° S
Cosmos 2184 Rocket 4.1 20:16:05 10° S 20:22:25 77° W 20:28:44 10° N
Cosmos 2074 Rocket 4.1 20:16:37 10° SSW 20:22:49 72° W 20:29:05 10° N
ASTRO E2 4.3 20:19:17 10° W 20:21:53 32° WSW 20:21:53 32° WSW
SL-16 R/B 4.4 20:27:56 10° NW 20:32:20 23° WSW 20:36:42 10° SSW
CZ-3C R/B 3.5 20:33:05 10° WSW 20:34:30 13° SW 20:34:30 13° SW
Hubble Space Telescope 3.6 20:34:00 10° SW 20:34:17 11° SW 20:34:17 11° SW
